CZ-10B DEB

Last updated on Sun Aug 09 2026 00:02:04 GMT+0000 (Coordinated Universal Time)

1 69973U 26158B 26220.32388551 -.00000001 00000+0 67771-4 0 9996 2 69973 49.9831 178.6327 0006016 34.2447 325.8853 14.24905278 4146
UTC large
Height (km)
Speed (km/s)
/
Latitude / Longitude
Inclination (degrees)
Orbital Period (minutes)
Azimuth
Elevation
Range (km)
Doppler Factor

Next 0 passes for location: London (51.5072 / 0.1276)

No passes found over London.
CZ-10B DEB